Location: Unspecified
(51.0000°N, 12.0000°E)
Time: 23:16:34
(UTC+01:00)

ISS - Pass Details

Date: 28 November 2020
Orbit: 418 x 419 km, 51.6° (Epoch: 18 January)

Event Time Altitude Azimuth Distance (km) Brightness Sun altitude
Rises 18:01:54 0° 264° (W) 2,367 1.8 -16.8°
Reaches altitude 10° 18:04:00 10° 266° (W) 1,502 0.3 -17.1°
Maximum altitude 18:07:22 81° 353° (N) 430 -3.8 -17.6°
Enters shadow 18:08:00 56° 71° (ENE) 506 -3.8 -17.7°
